Date String (YYYY-MM-DD hh:mm:ss) UTC,Instrument flags,absolute air pressure of the measurement (hPa),sample flow rate (lpm),inlet stack bypass flow (lpm),air temperature of the measurement (°C),ambient temperature measured by the external sensor (°C),aerosol sample conditioner tube jacket temperature (°C),OPC LED temperature (°C),internal box temperature (°C),relative humidity of the measurement (%),span deviation,mass concentration of particles derived from Lorenz-Mie calculation of OPC scattering (μg/m³),mass concentration of particles derived from Lorenz-Mie calculation of OPC scattering (μg/m³),mass concentration of particles derived from Lorenz-Mie calculation of OPC scattering (μg/m³)
DateTimeUTC,F1_M11,P_M11,Q1_M11,Q2_M11,T1_M11,T2_M11,T3_M11,T4_M11,T5_M11,U1_M11,ZSPAN_M11,X0_M11,X2_M11,X1_M11
2023-12-29 21:00:00,SystemResetWarning,0832.6,5.00,000.00,024.0,023.5,000.0,032.2,025.4,7.5,0000.0,0002.12,0000.73,0000.44
2023-12-29 21:01:00,SystemResetWarning,0832.6,5.01,000.00,024.0,023.5,000.0,032.2,025.4,7.6,0000.0,0001.96,0000.66,0000.42
2023-12-29 21:02:00,SystemResetWarning,0832.6,5.01,000.00,024.0,023.5,000.0,032.2,025.4,7.6,0000.0,0001.88,0000.63,0000.41
2023-12-29 21:03:00,SystemResetWarning,0832.6,4.99,000.00,024.1,023.5,000.0,032.2,025.4,7.7,0000.0,0002.04,0000.64,0000.41
2023-12-29 21:04:00,SystemResetWarning,0832.5,4.99,000.00,024.1,023.5,000.0,032.2,025.4,7.6,0000.0,0001.61,0000.60,0000.41
2023-12-29 21:05:00,SystemResetWarning,0832.5,4.99,000.00,024.1,023.5,000.0,032.2,025.5,7.6,0000.0,0001.48,0000.61,0000.41
2023-12-29 21:06:00,SystemResetWarning,0832.5,5.00,000.00,024.1,023.5,000.0,032.2,025.5,7.5,0000.0,0001.68,0000.62,0000.41
2023-12-29 21:07:00,SystemResetWarning,0832.5,5.00,000.00,024.1,023.5,000.0,032.3,025.5,7.5,0000.0,0002.66,0000.64,0000.41
2023-12-29 21:08:00,SystemResetWarning,0832.5,5.01,000.00,024.1,023.6,000.0,032.3,025.5,7.6,0000.0,0002.68,0000.65,0000.42
2023-12-29 21:09:00,SystemResetWarning,0832.5,5.01,000.00,024.1,023.6,000.0,032.3,025.5,7.6,0000.0,0002.89,0000.70,0000.44
2023-12-29 21:10:00,SystemResetWarning,0832.5,5.00,000.00,024.1,023.6,000.0,032.3,025.5,7.5,0000.0,0003.15,0000.75,0000.45
2023-12-29 21:11:00,SystemResetWarning,0832.6,5.00,000.00,024.2,023.6,000.0,032.3,025.5,7.6,0000.0,0003.26,0000.76,0000.46
2023-12-29 21:12:00,SystemResetWarning,0832.5,5.00,000.00,024.2,023.6,000.0,032.3,025.5,7.6,0000.0,0003.41,0000.79,0000.46
2023-12-29 21:13:00,SystemResetWarning,0832.5,5.00,000.00,024.2,023.6,000.0,032.3,025.5,7.6,0000.0,0003.47,0000.81,0000.48
2023-12-29 21:14:00,SystemResetWarning,0832.6,5.00,000.00,024.2,023.6,000.0,032.3,025.5,7.5,0000.0,0003.39,0000.86,0000.50
2023-12-29 21:15:00,SystemResetWarning,0832.6,5.01,000.00,024.2,023.6,000.0,032.4,025.5,7.4,0000.0,0003.56,0000.88,0000.51
2023-12-29 21:16:00,SystemResetWarning,0832.5,5.01,000.00,024.2,023.7,000.0,032.4,025.6,7.3,0000.0,0003.54,0000.88,0000.51
2023-12-29 21:17:00,SystemResetWarning,0832.6,5.00,000.00,024.2,023.7,000.0,032.4,025.6,7.2,0000.0,0003.44,0000.88,0000.52
2023-12-29 21:18:00,SystemResetWarning,0832.5,4.99,000.00,024.2,023.7,000.0,032.4,025.6,7.2,0000.0,0002.51,0000.91,0000.52
2023-12-29 21:19:00,SystemResetWarning,0832.5,4.99,000.00,024.2,023.7,000.0,032.4,025.6,7.2,0000.0,0002.61,0000.93,0000.53
2023-12-29 21:20:00,SystemResetWarning,0832.5,5.00,000.00,024.3,023.7,000.0,032.4,025.6,7.3,0000.0,0002.49,0000.92,0000.54
2023-12-29 21:21:00,SystemResetWarning,0832.5,5.01,000.00,024.3,023.7,000.0,032.4,025.6,7.3,0000.0,0002.37,0000.90,0000.52
2023-12-29 21:22:00,SystemResetWarning,0832.5,5.00,000.00,024.3,023.7,000.0,032.4,025.6,7.3,0000.0,0002.32,0000.91,0000.53
2023-12-29 21:23:00,SystemResetWarning,0832.6,4.99,000.00,024.3,023.7,000.0,032.5,025.6,7.3,0000.0,0002.26,0000.93,0000.54
2023-12-29 21:24:00,SystemResetWarning,0832.5,5.01,000.00,024.3,023.7,000.0,032.5,025.6,7.2,0000.0,0002.40,0000.97,0000.53
2023-12-29 21:25:00,SystemResetWarning,0832.5,5.00,000.00,024.3,023.8,000.0,032.5,025.6,7.1,0000.0,0002.93,0000.94,0000.52
2023-12-29 21:26:00,SystemResetWarning,0832.5,5.00,000.00,024.3,023.8,000.0,032.5,025.6,7.1,0000.0,0002.80,0000.96,0000.52
2023-12-29 21:27:00,SystemResetWarning,0832.5,5.00,000.00,024.3,023.8,000.0,032.5,025.7,7.1,0000.0,0004.51,0000.99,0000.52
2023-12-29 21:28:00,SystemResetWarning,0832.5,4.99,000.00,024.4,023.8,000.0,032.5,025.6,7.2,0000.0,0004.72,0001.01,0000.51
2023-12-29 21:29:00,SystemResetWarning,0832.5,4.99,000.00,024.4,023.8,000.0,032.5,025.6,7.2,0000.0,0005.25,0001.02,0000.52
2023-12-29 21:30:00,SystemResetWarning,0832.5,5.00,000.00,024.4,023.8,000.0,032.5,025.6,7.1,0000.0,0005.17,0001.01,0000.52
2023-12-29 21:31:00,SystemResetWarning,0832.5,5.00,000.00,024.4,023.8,000.0,032.5,025.7,7.1,0000.0,0005.67,0001.03,0000.52
2023-12-29 21:32:00,SystemResetWarning,0832.5,5.02,000.00,024.4,023.8,000.0,032.6,025.6,7.0,0000.0,0006.43,0001.06,0000.54
2023-12-29 21:33:00,SystemResetWarning,0832.5,4.98,000.00,024.4,023.8,000.0,032.6,025.7,6.9,0000.0,0006.61,0001.06,0000.54
2023-12-29 21:34:00,SystemResetWarning,0832.5,4.99,000.00,024.4,023.8,000.0,032.6,025.7,7.0,0000.0,0006.73,0001.08,0000.53
2023-12-29 21:35:00,SystemResetWarning,0832.5,5.00,000.00,024.4,023.8,000.0,032.6,025.7,7.0,0000.0,0006.72,0001.08,0000.53
2023-12-29 21:36:00,SystemResetWarning,0832.6,5.01,000.00,024.4,023.8,000.0,032.6,025.7,6.9,0000.0,0006.04,0001.07,0000.53
2023-12-29 21:37:00,SystemResetWarning,0832.5,5.00,000.00,024.4,023.8,000.0,032.6,025.7,6.8,0000.0,0006.23,0001.12,0000.54
2023-12-29 21:38:00,SystemResetWarning,0832.5,5.01,000.00,024.4,023.8,000.0,032.6,025.7,6.8,0000.0,0005.81,0001.13,0000.55
2023-12-29 21:39:00,SystemResetWarning,0832.5,5.00,000.00,024.5,023.8,000.0,032.6,025.7,6.9,0000.0,0005.78,0001.13,0000.56
2023-12-29 21:40:00,SystemResetWarning,0832.5,5.00,000.00,024.5,023.8,000.0,032.6,025.7,6.9,0000.0,0005.94,0001.13,0000.55
2023-12-29 21:41:00,SystemResetWarning,0832.5,4.99,000.00,024.5,023.8,000.0,032.6,025.7,6.9,0000.0,0006.45,0001.16,0000.54
2023-12-29 21:42:00,SystemResetWarning,0832.5,4.99,000.00,024.5,023.8,000.0,032.6,025.7,6.9,0000.0,0006.58,0001.13,0000.54
2023-12-29 21:43:00,SystemResetWarning,0832.5,5.00,000.00,024.5,023.8,000.0,032.7,025.7,6.9,0000.0,0005.50,0001.14,0000.54
2023-12-29 21:44:00,SystemResetWarning,0832.5,5.00,000.00,024.5,023.8,000.0,032.7,025.7,6.9,0000.0,0005.41,0001.14,0000.53
2023-12-29 21:45:00,SystemResetWarning,0832.4,5.01,000.00,024.5,023.8,000.0,032.7,025.7,6.9,0000.0,0005.91,0001.12,0000.53
2023-12-29 21:46:00,SystemResetWarning,0832.4,5.01,000.00,024.5,023.9,000.0,032.7,025.7,7.0,0000.0,0006.60,0001.11,0000.54
2023-12-29 21:47:00,SystemResetWarning,0832.4,5.00,000.00,024.5,023.9,000.0,032.7,025.8,7.0,0000.0,0006.86,0001.13,0000.54
2023-12-29 21:48:00,SystemResetWarning,0832.4,5.00,000.00,024.5,023.9,000.0,032.7,025.8,7.1,0000.0,0006.90,0001.13,0000.54
2023-12-29 21:49:00,SystemResetWarning,0832.4,5.00,000.00,024.5,023.9,000.0,032.7,025.9,7.0,0000.0,0006.61,0001.10,0000.52
2023-12-29 21:50:00,SystemResetWarning,0832.3,4.99,000.00,024.6,023.9,000.0,032.7,025.9,7.0,0000.0,0005.85,0001.13,0000.52
2023-12-29 21:51:00,SystemResetWarning,0832.3,5.00,000.00,024.6,023.9,000.0,032.7,025.9,7.1,0000.0,0005.84,0001.11,0000.53
2023-12-29 21:52:00,SystemResetWarning,0832.3,5.00,000.00,024.6,023.9,000.0,032.7,025.9,7.0,0000.0,0004.99,0001.08,0000.53
2023-12-29 21:53:00,SystemResetWarning,0832.3,4.99,000.00,024.6,023.9,000.0,032.7,025.9,7.1,0000.0,0004.74,0001.07,0000.53
2023-12-29 21:54:00,SystemResetWarning,0832.3,5.00,000.00,024.6,023.9,000.0,032.8,025.9,7.2,0000.0,0004.74,0001.05,0000.52
2023-12-29 21:55:00,SystemResetWarning,0832.3,5.00,000.00,024.6,023.9,000.0,032.8,025.9,7.1,0000.0,0004.83,0001.02,0000.52
2023-12-29 21:56:00,SystemResetWarning,0832.3,5.00,000.00,024.6,023.9,000.0,032.8,025.9,7.1,0000.0,0004.16,0001.00,0000.53
2023-12-29 21:57:00,SystemResetWarning,0832.3,5.00,000.00,024.6,023.9,000.0,032.8,025.9,7.2,0000.0,0003.20,0000.95,0000.53
2023-12-29 21:58:00,SystemResetWarning,0832.3,5.01,000.00,024.6,023.9,000.0,032.8,025.9,7.2,0000.0,0003.56,0000.91,0000.52
2023-12-29 21:59:00,SystemResetWarning,0832.3,5.01,000.00,024.6,023.9,000.0,032.8,025.9,7.1,0000.0,0004.47,0000.88,0000.52
